Dewpoint
31 31 31 31 31 31 31 31 31 31 31 31 31 31 31 31 30 30 30 30 30 30 30 30 30 30 29 29 29 29 29 29 30 30 30 30 30 30 30 30 30 30 30 30 30 30 31 31 30 30 30 30 30 30 30 30 31 32 33 34 35 36 37 38 38 39 39 40 41
30 30 31 31 31 31 31 31 31 31 31 31 31 31 32 31 31 31 30 30 30 30 30 31 30 30 30 30 31 31 31 31 32 32 32 32 32 32 32 31 31 31 31 31 31 31 31 31 31 30 30 30 30 30 30 30 30 31 32 33 34 35 36 37 38 39 39 40 41
30 30 30 31 31 31 31 31 31 31 31 31 31 31 32 32 31 31 31 31 31 31 31 32 32 32 33 33 34 34 34 34 34 34 34 34 34 34 34 34 34 33 32 32 32 32 32 31 31 31 30 31 31 31 31 30 30 31 32 33 34 35 36 37 38 39 40 41 42
29 29 30 31 30 31 31 31 31 31 31 31 31 32 32 33 32 32 32 32 33 34 34 35 35 35 36 36 36 36 36 35 35 34 34 34 34 34 34 34 34 34 33 33 33 32 32 32 32 32 32 31 31 31 30 30 31 31 32 32 34 35 37 38 39 40 41 43 43
29 30 31 32 31 31 31 31 31 31 31 31 31 32 33 33 33 33 34 35 36 37 37 37 36 36 35 35 34 34 34 34 34 34 34 34 34 34 34 34 33 33 33 32 33 32 32 33 33 33 32 32 31 31 30 30 31 32 32 33 34 35 37 38 38 40 41 42 42
30 31 32 32 32 31 31 31 31 30 30 30 31 32 32 33 33 34 35 36 36 35 34 34 33 32 32 32 32 33 33 34 34 34 34 34 34 34 34 33 32 32 32 33 33 34 34 34 34 34 33 33 32 31 31 31 32 33 33 34 34 35 36 37 38 39 40 40 40
33 33 33 32 31 31 31 31 30 30 30 30 30 31 31 32 32 33 34 34 34 33 33 32 31 31 31 31 32 33 33 34 34 35 35 34 34 33 32 32 32 33 34 34 35 35 36 36 35 35 34 34 34 33 32 33 33 33 34 34 34 34 35 36 37 38 39 39 39
33 33 32 30 30 30 31 31 30 30 30 30 31 31 32 33 33 34 34 34 33 33 32 31 31 31 31 31 32 32 33 34 34 34 34 34 34 33 33 34 35 36 37 37 38 38 38 38 38 38 37 37 36 35 34 34 34 34 34 34 34 34 34 36 36 37 38 38 38
32 31 31 30 30 31 31 30 31 31 31 32 32 33 34 34 34 34 33 33 32 32 31 31 31 31 31 32 33 33 34 34 33 33 33 33 34 34 35 35 36 37 37 37 37 36 36 36 37 38 38 38 38 38 37 35 34 34 34 34 34 34 34 35 36 36 37 37 37
32 31 31 31 31 31 31 31 32 32 32 33 34 34 34 34 33 33 32 32 31 31 32 31 32 32 33 34 34 34 34 34 33 32 31 31 32 33 34 34 34 34 34 34 34 34 34 34 36 37 37 38 38 38 38 37 36 35 34 34 34 34 34 34 35 35 36 36 37
31 31 30 30 30 30 31 31 32 32 32 32 32 32 32 32 32 32 32 32 33 34 34 34 35 35 35 36 35 34 34 32 31 30 30 30 30 31 32 32 32 32 32 33 33 33 34 34 35 36 36 37 37 37 37 37 37 36 36 35 34 34 34 34 34 35 35 35 36
30 29 29 29 29 30 30 30 31 31 31 31 31 31 31 31 32 33 33 34 35 36 36 36 36 36 35 35 34 33 32 31 30 30 31 31 31 31 32 32 32 32 33 33 33 34 34 34 34 34 35 35 36 36 36 36 36 36 36 36 35 35 34 34 34 34 34 34 35
30 29 29 28 29 29 29 30 30 30 30 30 30 31 32 32 33 34 35 36 36 36 35 35 34 34 34 33 32 32 31 31 32 33 33 33 33 33 33 33 33 33 33 33 34 34 34 34 34 34 34 34 34 35 35 35 35 36 36 36 36 35 35 34 34 34 34 34 34
30 30 29 29 29 29 29 29 29 30 30 30 31 32 33 34 35 36 36 35 34 34 34 34 34 33 32 32 32 32 32 33 34 34 34 34 34 34 34 34 34 34 34 34 34 34 34 34 34 34 34 34 34 34 34 34 35 35 35 36 36 36 35 35 34 34 34 34 34
29 29 29 29 29 29 29 29 29 30 31 31 33 34 35 36 36 35 34 34 34 34 34 34 34 34 33 33 33 34 34 34 34 34 34 34 34 34 34 34 34 34 34 34 34 34 34 34 34 34 34 34 34 34 34 34 35 35 35 36 36 36 36 36 35 34 34 34 34
29 29 29 29 29 29 29 29 30 31 32 34 34 35 35 35 35 34 34 34 34 34 33 33 33 33 33 34 34 34 34 34 34 34 34 34 34 34 34 34 34 34 34 34 34 35 35 35 35 35 35 34 34 34 34 34 35 35 35 35 35 36 36 36 36 35 35 34 34
29 29 29 29 29 29 29 30 32 33 34 34 34 34 34 34 34 34 33 33 33 33 33 32 32 33 33 33 33 33 33 33 34 34 34 34 34 34 34 34 34 34 34 34 34 35 35 35 35 35 35 35 35 35 35 35 35 35 35 36 36 36 35 35 35 35 35 34 34
29 29 29 29 29 29 30 31 33 34 34 34 34 34 33 33 33 33 33 33 32 32 32 32 32 32 32 32 33 33 33 33 34 34 34 34 34 34 34 34 34 34 35 35 35 35 35 35 35 35 36 36 36 36 36 36 36 36 36 36 36 36 36 36 35 35 35 35 35
29 29 29 29 29 30 31 32 33 33 34 34 33 33 32 32 32 32 32 31 31 31 31 31 31 32 32 32 33 33 33 34 34 34 34 34 34 34 34 35 35 35 35 35 35 35 35 35 35 36 36 36 36 36 36 36 36 36 36 36 36 37 37 37 36 36 36 36 36
29 29 29 29 30 31 31 32 33 33 33 32 31 31 31 31 31 31 31 31 31 31 31 31 31 32 32 32 33 33 34 34 34 34 34 34 35 35 35 35 35 35 35 35 35 36 36 36 36 36 36 36 36 36 36 36 36 36 36 37 37 37 37 37 37 37 37 36 37
29 29 29 30 30 31 32 32 32 31 31 30 30 30 30 30 30 30 30 30 30 31 31 31 31 32 32 32 33 33 34 34 34 34 34 34 34 35 35 35 35 35 36 36 36 36 36 36 36 36 36 36 36 36 36 36 36 36 37 37 37 37 37 38 38 38 38 38 38
28 29 29 30 30 31 31 31 30 29 29 29 29 30 30 30 30 30 30 30 30 31 31 31 31 32 32 32 33 33 34 34 34 34 34 35 35 35 35 35 35 36 36 36 36 37 37 37 37 37 37 37 37 36 36 36 36 36 36 37 37 37 37 37 38 38 38 38 38
26 27 29 30 30 29 29 29 29 29 29 29 29 29 30 30 30 30 30 30 31 31 31 31 32 32 33 33 33 34 34 34 34 34 34 35 35 35 35 36 36 36 37 37 38 38 38 38 38 38 38 38 38 38 38 37 37 37 37 37 37 37 37 37 38 38 38 38 38
26 27 28 29 29 28 28 28 28 29 29 29 29 29 29 29 30 30 30 31 31 31 32 32 33 33 33 34 34 34 34 34 34 34 34 34 35 35 36 36 37 37 37 38 38 38 38 38 38 38 38 38 38 38 38 38 38 38 38 38 38 38 38 38 38 38 38 38 38
27 28 28 27 27 27 27 28 28 29 29 29 29 29 29 29 30 30 30 31 31 32 32 32 33 33 33 34 34 34 34 34 34 34 34 35 35 36 37 37 37 38 38 38 38 38 38 37 37 37 37 36 36 36 36 35 36 36 36 36 37 37 38 38 38 38 38 38 38
27 27 27 27 27 27 27 28 28 29 29 29 29 29 29 29 30 30 31 31 31 32 32 32 33 33 33 33 33 33 34 34 34 34 35 36 36 36 36 36 37 38 38 38 37 36 36 36 36 35 35 36 36 36 35 35 35 35 35 36 36 36 37 37 38 39 39 39 39
27 26 26 26 26 27 27 28 28 29 29 29 29 29 29 29 30 31 31 31 31 31 32 32 32 32 32 33 33 33 33 34 35 35 36 36 35 35 35 36 37 37 37 36 36 36 36 36 36 36 36 36 36 36 36 35 35 35 35 35 35 35 36 36 36 38 38 40 40
26 26 26 26 26 27 27 28 28 28 28 28 29 29 29 30 30 30 30 30 31 31 31 31 31 32 32 32 32 33 34 34 34 35 35 35 35 35 36 36 36 36 36 35 35 35 36 36 36 36 36 35 35 35 35 35 35 35 35 35 35 35 35 35 35 36 37 38 40
25 25 26 26 26 27 27 28 28 28 28 28 29 29 29 30 30 30 30 30 30 30 30 30 31 31 31 32 32 33 33 33 34 34 34 35 35 35 35 35 35 35 35 35 35 35 35 36 35 35 35 35 35 35 35 34 34 34 34 34 34 34 34 34 34 35 35 36 38
25 25 26 26 26 27 27 28 28 28 28 29 29 29 29 29 29 29 29 29 29 29 29 30 30 31 31 31 32 32 32 33 33 34 34 35 35 35 34 34 34 35 35 35 35 35 35 35 35 35 35 35 34 34 34 34 34 34 34 34 34 34 34 34 34 34 34 35 37
25 25 26 26 26 27 27 28 28 28 28 29 29 29 29 29 29 29 29 29 29 29 29 29 30 30 30 31 31 31 32 32 33 34 34 34 34 34 34 34 34 34 34 35 35 35 35 35 35 34 34 34 34 34 34 34 34 34 34 34 34 34 34 34 34 34 34 34 35
25 26 26 26 26 27 27 27 28 28 28 29 29 29 29 28 28 28 28 28 28 29 29 29 29 29 29 30 30 31 32 32 33 33 34 33 33 33 33 33 33 34 34 34 34 34 34 34 34 34 34 34 34 34 34 33 33 33 33 33 33 34 34 34 34 34 34 34 35
26 26 26 26 26 27 27 27 28 28 28 29 29 28 28 28 27 27 28 28 28 28 28 28 29 29 29 29 30 31 32 32 32 32 32 32 32 32 32 32 32 33 33 34 34 34 34 33 33 33 33 33 33 33 33 33 33 33 33 33 33 33 34 34 34 34 34 34 35
26 26 26 26 27 27 27 27 28 28 28 28 28 28 27 27 27 27 27 27 27 27 27 28 28 28 29 29 30 31 31 31 31 31 31 31 31 31 31 31 32 33 33 33 33 32 32 32 32 32 32 32 33 33 33 32 32 32 32 33 33 33 34 34 34 34 34 35 35
26 26 26 26 27 27 27 27 27 28 28 27 27 27 26 26 26 26 25 26 26 26 26 27 27 28 29 29 30 30 30 30 30 30 30 30 30 30 30 30 31 32 32 32 31 31 31 31 32 32 32 32 32 32 32 32 32 32 32 32 33 33 34 34 34 34 34 35 35
26 26 26 26 27 27 27 27 27 27 27 27 26 26 25 25 25 25 25 25 25 25 25 26 26 27 28 29 29 29 29 29 29 29 30 29 29 29 29 30 30 31 31 31 30 30 31 31 31 32 32 32 32 32 32 32 32 32 32 32 33 33 34 34 34 34 34 35 35
26 26 26 26 26 27 27 27 27 27 26 26 26 25 25 25 25 25 25 25 25 25 25 25 25 26 27 27 28 28 28 29 29 29 29 29 29 29 29 29 29 29 30 30 30 30 30 31 31 31 32 32 32 32 33 33 33 33 33 33 33 33 34 34 34 34 34 35 35
27 27 27 27 26 26 27 27 26 26 26 26 25 25 25 25 24 24 25 25 24 24 24 25 25 25 26 26 27 27 28 28 28 28 28 28 28 29 29 29 29 29 29 29 30 30 30 31 31 31 32 32 32 33 33 34 34 34 34 33 33 33 33 34 34 34 35 35 35
27 27 27 27 26 26 26 26 26 26 26 25 25 24 24 24 24 24 24 25 24 24 24 24 25 25 26 26 26 26 27 27 27 28 28 28 28 28 28 28 28 28 29 29 29 30 30 31 31 32 32 32 33 33 34 34 34 34 33 33 33 33 33 34 34 34 34 35 36
27 27 27 27 27 26 26 26 26 26 26 25 24 24 24 24 23 24 24 24 24 24 24 24 24 25 25 25 25 25 26 26 26 27 27 27 28 28 28 28 28 28 28 29 29 29 30 30 31 32 32 33 33 34 34 34 34 33 33 32 32 33 33 33 34 34 34 34 35
27 27 27 27 27 26 26 26 26 26 25 25 24 24 24 24 23 23 23 23 23 23 24 24 24 24 24 25 24 25 25 25 25 25 26 26 27 28 28 28 27 27 27 28 29 29 30 30 31 32 33 33 34 34 34 34 33 32 32 32 32 33 33 33 34 34 34 34 34